Torna al catalogo

COSMOS 1034

AttivoMilitareLEO
NORAD 11042·PAYLOAD·🇷🇺 Russia

Lanciato Oct 4, 1978 da Plesetsk Cosmodrome

Loading…

Prossimi Passaggi (prossime 24 ore)

TLE

AggiornatoSource: Space-Track

Epoca: Sep 14, 2026, 06:02 UTC

1 11042U 78091A   26257.25203889 -.00000026  00000-0 -64331-4 0  9993
2 11042  74.0325  80.8184 0037945 263.3774 207.7560 12.53201899193404

Traccia COSMOS 1034 in tempo reale con AllMySat

Download on the App Store